Location: Dennehotso
(36.8461°N, 109.8435°W)
Time: 19:46:43
(UTC+00:00)

ISS - Pass Details

Date: 12 March 2021
Orbit: 418 x 422 km, 51.6° (Epoch: 16 April)

Event Time Altitude Azimuth Distance (km) Brightness Sun altitude
Exits shadow 11:00:43 13° 66° (ENE) 1,326 -0.4 -31.0°
Drops below altitude 10° 11:01:20 10° 75° (ENE) 1,493 -0.1 -30.9°
Sets 11:03:52 0° 94° (E) 2,355 1.0 -30.4°
